Regional Weather Roundup
Issued by NWS

Home | Current Version | Previous Version | Graphics & Text | Print | Product List | Glossary On
Versions: 1 2 3 4 5 6 7 8 9 10 11 12 13 14 15 16 17 18 19 20 21 22 23 24 25 26 27 28 29 30 31 32 33 34 35 36 37 38 39 40 41 42 43 44 45 46 47 48 49 50
000
ASUS43 KLSX 261807
RWRMO

WEATHER SUMMARY FOR MISSOURI
NATIONAL WEATHER SERVICE SPRINGFIELD MO
100 PM CDT TUE MAY 26 2015

NOTE: "FAIR" INDICATES FEW OR NO CLOUDS BELOW 12,000 FEET WITH NO
       SIGNIFICANT WEATHER AND/OR OBSTRUCTIONS TO VISIBILITY.
       CURRENT SKY AND/OR WEATHER CONDITIONS ARE NOT AVAILABLE FOR
       CHILLICOTHE AND FARMINGTON.

MOZ001>031-035>038-043-044-053-054-261900-
...NORTHERN AND WESTERN MISSOURI...

CITY           SKY/WX    TMP DP  RH WIND       PRES   REMARKS
KANSAS CTY INT PTSUNNY   71  60  68 SW16G25   29.85S
6HR MIN TEMP:  60; 6HR MAX TEMP:  73;

KANSAS C DTWN  LGT RAIN  76  57  51 W21G29    29.84S
6HR MIN TEMP:  62; 6HR MAX TEMP:  77; 6HR PCP: TRACE;

LEE`S SUMMIT   MOSUNNY   75  59  57 SW23G30   29.87R
6HR MIN TEMP:  61; 6HR MAX TEMP:  75; 6HR PCP:  0.01;

ST JOSEPH      MOSUNNY   72  61  68 SW14G24   29.82F
6HR MIN TEMP:  61; 6HR MAX TEMP:  73; 6HR PCP: TRACE;

CHILLICOTHE      N/A     72  61  68 SW8       29.84F
6HR MIN TEMP:  62; 6HR MAX TEMP:  73; 6HR PCP:  0.03;

KIRKSVILLE     PTSUNNY   72  62  71 SW13G22   29.85S
6HR MIN TEMP:  65; 6HR MAX TEMP:  72;


$$
MOZ066>068-077>081-088>096-101>105-261900-
...SOUTHWEST MISSOURI...

CITY           SKY/WX    TMP DP  RH WIND       PRES   REMARKS
SPRINGFIELD    MOSUNNY   71  59  65 SW16      29.99S
6HR MIN TEMP:  63; 6HR MAX TEMP:  72;

JOPLIN         MOSUNNY   73  62  68 S10       30.00R
6HR MIN TEMP:  62; 6HR MAX TEMP:  73;


$$
MOZ032>034-039>042-045>050-055>058-069>072-261900-
...CENTRAL MISSOURI...

CITY           SKY/WX    TMP DP  RH WIND       PRES   REMARKS
COLUMBIA       PTSUNNY   73  62  68 SW15G24   29.91S
6HR MIN TEMP:  65; 6HR MAX TEMP:  74; 6HR PCP: TRACE;

JEFFERSON CITY PTSUNNY   74  60  61 SW16G22   29.92R
6HR MIN TEMP:  65; 6HR MAX TEMP:  74; 6HR PCP:  0.02;

ROLLA          PTSUNNY   71  61  70 SW16G25   29.94R
6HR MIN TEMP:  63; 6HR MAX TEMP:  72;

SEDALIA        MOSUNNY   75  61  61 SW17      29.91S
6HR MIN TEMP:  64; 6HR MAX TEMP:  75; 6HR PCP:  0.01;

WHITEMAN AFB   PTSUNNY   74  61  61 SW14G23   29.89R
WARRENSBURG    PTSUNNY   73  59  60 SW14G23   29.89R HAZE
OSAGE BEACH    PTSUNNY   73  57  56 W10       29.95S

$$
MOZ051-052-059>065-261900-
...EAST CENTRAL MISSOURI...

CITY           SKY/WX    TMP DP  RH WIND       PRES   REMARKS
ST LOUIS INTL  PTSUNNY   76  59  55 SW21G29   29.92R
6HR MIN TEMP:  68; 6HR MAX TEMP:  78; 6HR PCP:  0.15;

SPIRIT OF STL  CLOUDY    74  60  61 SW16G23   29.91R
6HR MIN TEMP:  67; 6HR MAX TEMP:  75; 6HR PCP:  0.04;

ST CHARLES     CLOUDY    76  62  62 SW22G29   29.89R
6HR MIN TEMP:  68; 6HR MAX TEMP:  77; 6HR PCP:  0.55;


$$
MOZ072>076-082>087-097>100-106>115-261900-
...SOUTH CENTRAL AND SOUTHEAST MISSOURI...

CITY           SKY/WX    TMP DP  RH WIND       PRES   REMARKS
CAPE GIRARDEAU PTSUNNY   74  63  68 S16G26    30.00S
6HR MIN TEMP:  70; 6HR MAX TEMP:  74; 6HR PCP: TRACE;

FARMINGTON     PTSUNNY   70  59  68 SW9G20    30.02R
6HR MIN TEMP:  66; 6HR MAX TEMP:  72; 6HR PCP:  0.05;

POPLAR BLUFF   CLOUDY    74  63  68 S15       30.00S
6HR MIN TEMP:  68; 6HR MAX TEMP:  73; 6HR PCP:  0.01;

WEST PLAINS    CLOUDY    69  59  70 SW9       30.03S
6HR MIN TEMP:  61; 6HR MAX TEMP:  69;


$$


USA.gov is the U.S. government's official web portal to all federal, state and local government web resources and services.